Wind_Speed
41 41 42 43 44 44 45 46 46 46 46 47 46 45 44 43 43 42 42 41 39 37 35 33 33 31 29 28 27 27 28 28 28 29 30 29 30 31 31 32 32 33 33
40 41 41 42 42 41 41 40 40 40 39 38 37 37 38 37 38 37 36 36 36 35 33 32 31 29 29 27 27 26 27 28 28 29 30 31 32 33 33 34 34 35 35
39 39 39 39 38 37 37 36 34 32 31 31 33 33 33 34 34 33 32 33 34 33 31 30 29 27 26 26 26 26 26 27 28 29 30 31 32 33 34 35 36 36 37
37 37 36 35 34 33 33 31 30 29 28 26 26 28 28 29 31 32 31 31 31 30 29 28 26 24 24 25 25 25 26 26 27 29 30 31 32 34 35 36 37 38 38
35 34 33 31 30 30 29 27 25 23 23 20 21 22 23 24 27 28 27 28 28 26 25 23 22 22 23 23 23 23 24 25 26 28 29 31 32 34 35 36 38 39 39
32 31 30 28 27 27 26 23 21 20 19 18 17 17 18 20 22 24 25 24 24 23 21 19 19 20 21 22 21 21 22 23 24 26 28 30 32 34 35 37 38 38 39
29 28 27 25 25 24 22 21 19 17 17 15 14 14 14 15 17 19 19 20 19 18 18 17 17 18 18 18 18 19 20 22 24 26 28 30 32 34 35 37 38 38 38
28 26 24 23 23 21 19 18 16 15 14 13 12 11 11 12 13 15 16 16 17 17 17 16 15 15 15 15 16 17 19 20 22 25 27 29 31 33 34 35 36 36 37
26 24 23 22 21 19 18 17 15 13 12 12 11 11 11 11 12 12 13 13 13 13 12 12 12 13 13 13 14 16 18 20 22 24 27 29 31 33 34 35 35 35 35
25 23 22 21 20 18 17 16 14 13 12 12 11 10 10 10 10 10 10 10 10 10 10 10 10 10 11 12 14 15 17 20 22 25 27 29 31 31 32 32 33 32 32
26 23 21 20 19 18 17 15 14 14 13 12 11 10 9 9 10 9 9 9 8 8 8 9 9 10 11 12 14 15 18 20 23 25 27 28 29 29 29 30 30 30 29
25 23 21 20 19 18 17 16 15 14 13 12 11 10 9 8 8 8 9 9 8 8 8 9 9 10 11 12 14 16 18 20 23 25 27 28 28 28 28 28 28 28 27
26 24 22 20 19 18 17 15 14 14 12 11 11 10 9 9 9 9 9 9 9 9 9 10 10 11 12 13 15 17 19 21 23 25 26 27 28 28 28 27 27 26 25
27 25 23 21 19 18 17 16 14 13 12 11 10 9 9 9 9 9 9 9 10 10 10 11 11 12 13 14 16 17 19 21 23 25 26 27 28 28 28 28 27 25 24
28 27 25 23 21 20 19 17 16 14 13 12 11 10 10 10 10 11 11 11 11 12 12 12 13 13 14 15 16 18 19 21 22 24 26 27 28 28 28 28 27 26 24
29 29 27 25 23 21 20 19 18 16 15 14 14 13 13 13 13 13 13 13 13 13 13 14 14 15 16 16 17 18 19 21 23 24 26 27 28 28 28 28 27 26 24
29 30 29 28 26 24 22 20 19 18 17 16 15 15 14 14 14 14 14 14 14 14 15 15 16 16 17 18 18 19 20 21 23 25 26 27 28 28 28 28 27 26 24
29 30 30 30 28 26 24 23 21 20 19 18 17 16 16 16 16 16 16 16 16 16 17 17 17 18 18 19 19 20 21 22 23 25 26 28 29 29 29 28 28 26 25
30 30 31 31 30 29 27 25 24 22 21 19 18 18 18 18 18 18 18 18 18 18 18 18 19 19 20 20 21 21 21 22 23 25 26 28 29 30 29 29 28 27 25
32 31 32 32 31 30 29 27 26 24 23 22 20 20 20 19 19 20 20 20 20 20 20 20 20 21 21 21 21 21 21 22 23 24 25 27 29 30 30 30 29 28 27
32 32 32 32 31 30 29 27 26 25 24 23 22 22 22 22 21 21 21 21 22 22 22 22 22 22 22 22 22 22 22 22 22 23 25 27 29 30 31 31 31 30 29
32 32 31 31 31 30 29 28 27 25 25 24 23 22 23 23 23 22 22 22 23 23 23 23 23 23 23 23 22 22 22 22 22 23 24 27 29 30 32 32 33 32 31
34 32 30 29 29 28 28 28 27 26 25 24 23 21 21 23 23 23 23 23 23 23 23 24 24 24 24 23 23 23 22 22 22 23 24 26 29 31 33 34 35 34 32
36 33 29 28 26 25 24 24 24 24 23 22 22 20 19 21 22 22 22 22 23 23 23 23 23 24 23 23 23 23 23 23 23 23 25 27 29 32 34 35 36 35 34
36 33 30 27 25 24 23 22 22 21 20 20 20 19 18 18 20 21 21 21 21 21 21 21 21 22 22 22 22 22 22 23 24 25 27 28 30 32 35 36 37 37 35
36 35 31 27 25 23 21 21 20 19 18 18 18 17 17 17 17 18 19 19 19 19 19 19 19 20 20 21 21 21 21 23 25 27 29 31 32 34 36 37 38 38 36
Wind_Direction
285 285 285 286 287 287 287 286 284 282 280 276 272 268 265 264 264 262 261 258 259 258 257 258 260 260 262 266 268 270 272 274 276 277 279 281 283 284 285 285 285 285 285
285 286 288 289 290 290 290 289 288 285 280 274 270 268 264 262 261 259 256 254 255 254 255 257 258 259 263 266 268 270 272 274 276 278 281 283 284 285 285 285 285 285 284
287 288 290 292 293 294 293 291 290 286 283 276 271 268 263 258 255 254 253 252 250 250 251 253 256 260 265 268 270 271 273 275 278 281 283 284 284 284 285 284 284 284 283
288 289 291 293 294 296 295 293 292 288 286 281 270 266 259 256 252 252 250 245 246 246 247 251 256 260 265 268 269 272 275 278 281 283 285 286 286 286 286 286 285 284 283
289 289 291 293 295 298 298 296 294 292 289 285 274 265 258 252 248 245 241 240 242 245 245 249 255 260 264 267 270 274 277 281 284 285 287 288 288 288 288 288 287 285 283
288 289 291 293 296 299 299 298 296 293 290 285 278 272 261 250 242 238 239 238 243 244 247 252 256 261 266 268 271 275 279 283 287 289 291 292 292 292 291 290 289 286 284
288 288 290 292 296 299 299 297 295 295 294 284 274 269 259 248 242 234 231 234 235 240 247 250 255 260 264 269 274 279 283 287 291 294 296 297 297 296 295 293 291 289 286
287 286 287 291 294 296 297 296 294 294 292 286 274 265 259 251 243 235 233 235 239 242 244 247 251 257 264 271 277 284 289 294 298 301 302 303 302 301 299 296 293 290 289
284 283 284 286 288 290 290 289 288 288 287 289 282 271 263 254 245 239 236 234 234 237 241 244 250 258 264 273 282 289 294 299 303 305 307 307 307 305 302 299 297 294 291
280 279 281 281 283 283 283 282 283 283 285 284 281 269 260 251 246 241 233 230 231 234 240 244 249 258 269 280 289 295 300 305 308 310 311 311 310 309 307 304 301 298 294
275 275 276 277 277 276 276 277 278 279 279 277 272 266 260 253 245 242 242 239 238 239 242 249 257 267 277 286 294 300 305 310 313 315 315 315 315 314 312 309 306 302 298
268 269 269 270 270 269 269 270 272 275 274 271 267 264 260 254 250 248 245 244 247 247 247 255 264 273 284 293 299 304 309 313 317 319 320 319 318 318 317 314 310 306 302
261 261 262 263 263 263 264 265 267 269 269 267 262 260 259 254 253 252 252 253 255 255 256 261 270 280 290 297 303 308 313 317 320 322 323 322 322 321 320 317 313 309 306
255 254 256 257 257 258 258 259 260 263 262 261 260 258 257 257 253 252 253 257 258 259 260 267 275 284 293 300 306 310 315 318 322 324 325 325 324 323 321 318 315 311 306
252 250 251 252 252 253 253 252 253 255 256 256 255 256 255 255 255 257 259 260 260 262 267 273 280 286 295 300 304 309 314 319 323 326 327 327 326 325 323 321 317 313 308
251 248 247 247 247 249 250 248 248 251 252 252 253 255 256 257 259 260 261 261 262 266 272 276 281 287 292 297 302 308 315 321 325 328 329 329 329 328 326 324 321 317 312
252 245 243 244 244 245 246 246 247 248 250 252 253 253 255 257 259 261 262 263 266 269 273 277 281 287 292 298 303 309 315 321 326 329 330 331 331 331 329 327 324 320 316
251 245 241 242 243 242 242 243 245 247 249 251 253 254 255 257 260 262 263 265 268 272 275 278 282 286 291 297 302 308 313 319 325 329 331 333 333 332 331 329 327 323 319
248 245 242 241 240 240 240 241 244 247 249 251 253 255 257 259 261 264 265 266 269 272 275 278 281 285 290 294 299 304 309 316 322 327 330 333 334 333 332 332 330 327 322
242 243 241 240 239 239 240 241 243 245 247 249 252 255 258 259 261 263 265 267 270 273 276 278 281 285 288 292 296 300 305 312 318 324 328 332 334 334 334 333 332 329 326
233 238 239 239 238 237 238 240 242 243 245 248 250 253 258 260 261 264 266 268 270 272 275 278 281 284 287 290 294 297 301 307 315 321 326 330 333 335 335 334 332 330 328
227 232 235 236 236 237 237 237 240 242 244 248 250 252 256 259 261 263 265 267 269 271 273 276 279 281 284 287 291 294 297 302 308 316 322 327 331 334 335 336 335 333 330
225 228 227 230 232 234 237 237 237 241 244 248 250 250 253 257 260 262 264 266 268 270 272 274 276 279 282 285 289 292 295 298 303 310 317 323 328 331 334 335 335 334 331
220 221 223 224 227 230 233 235 236 239 242 246 251 252 253 256 259 261 263 265 267 269 273 274 275 278 282 284 286 290 293 296 301 306 312 317 322 327 331 333 334 333 330
216 216 217 220 223 225 230 231 233 237 241 246 252 255 255 255 260 264 267 268 269 271 273 274 275 278 282 283 285 288 290 294 299 304 309 312 317 322 326 328 330 331 329
211 211 211 214 218 219 222 225 230 235 240 245 252 259 260 259 260 264 267 269 271 274 274 275 276 279 281 284 286 286 289 294 299 304 309 313 316 320 322 324 326 327 327
Height
5774 5771 5768 5765 5762 5758 5754 5749 5746 5742 5739 5737 5736 5737 5738 5739 5741 5743 5745 5747 5750 5751 5753 5755 5757 5758 5760 5761 5763 5765 5766 5766 5766 5766 5766 5766 5765 5765 5764 5764 5763 5762 5761
5764 5761 5758 5755 5751 5747 5742 5738 5734 5730 5727 5724 5723 5725 5727 5728 5731 5733 5733 5737 5740 5742 5744 5747 5749 5750 5752 5754 5756 5757 5758 5758 5758 5758 5757 5757 5756 5756 5755 5754 5753 5752 5752
5754 5751 5748 5745 5741 5736 5732 5728 5724 5721 5718 5715 5715 5716 5717 5719 5721 5724 5726 5729 5732 5734 5736 5738 5741 5743 5745 5747 5749 5750 5750 5750 5750 5750 5749 5748 5748 5746 5745 5744 5743 5742 5741
5745 5742 5739 5736 5732 5728 5724 5720 5716 5714 5711 5709 5708 5708 5708 5711 5713 5716 5718 5720 5724 5726 5729 5732 5734 5736 5738 5740 5741 5742 5742 5742 5742 5741 5741 5740 5739 5737 5736 5734 5733 5732 5730
5736 5734 5731 5728 5724 5721 5717 5713 5710 5707 5705 5703 5702 5701 5702 5704 5707 5709 5711 5714 5717 5720 5723 5725 5728 5730 5732 5733 5734 5734 5734 5734 5734 5733 5733 5731 5730 5728 5726 5724 5723 5721 5719
5728 5726 5723 5720 5717 5714 5711 5708 5705 5702 5700 5698 5697 5697 5698 5699 5701 5703 5706 5709 5712 5715 5717 5720 5722 5724 5726 5727 5727 5728 5728 5727 5727 5726 5724 5723 5721 5718 5716 5714 5712 5710 5708
5721 5719 5717 5714 5711 5708 5705 5703 5701 5699 5697 5695 5694 5694 5694 5695 5697 5699 5701 5704 5706 5709 5712 5714 5716 5718 5720 5721 5721 5721 5721 5720 5719 5718 5716 5714 5712 5709 5707 5704 5701 5699 5697
5713 5712 5710 5708 5706 5703 5701 5699 5697 5696 5695 5693 5692 5692 5692 5693 5694 5696 5698 5700 5702 5705 5707 5709 5711 5713 5714 5715 5716 5715 5715 5714 5713 5711 5709 5706 5703 5700 5697 5694 5691 5688 5685
5706 5705 5704 5703 5701 5699 5697 5696 5694 5693 5692 5691 5690 5690 5690 5691 5692 5694 5695 5697 5699 5701 5703 5705 5707 5708 5709 5710 5710 5710 5709 5708 5706 5704 5701 5698 5695 5692 5688 5684 5681 5678 5675
5700 5699 5698 5697 5696 5694 5693 5692 5691 5690 5689 5688 5688 5688 5688 5689 5690 5692 5693 5694 5696 5698 5700 5701 5703 5704 5705 5705 5705 5704 5703 5702 5700 5697 5694 5691 5687 5683 5679 5675 5671 5668 5664
5693 5692 5692 5691 5690 5689 5689 5688 5687 5687 5686 5686 5686 5686 5686 5687 5688 5690 5691 5692 5694 5695 5697 5698 5699 5700 5701 5701 5700 5699 5698 5696 5694 5691 5688 5684 5680 5676 5671 5667 5663 5659 5656
5686 5685 5685 5685 5685 5684 5684 5684 5683 5683 5683 5683 5683 5683 5684 5685 5686 5687 5689 5690 5691 5693 5694 5695 5696 5696 5696 5696 5695 5694 5693 5691 5688 5685 5681 5677 5673 5669 5664 5660 5656 5652 5648
5678 5678 5679 5679 5679 5679 5679 5679 5679 5679 5679 5679 5680 5681 5682 5682 5684 5685 5686 5687 5688 5690 5691 5692 5692 5692 5692 5692 5691 5689 5688 5685 5682 5679 5675 5671 5667 5663 5658 5654 5650 5646 5642
5669 5670 5671 5672 5673 5674 5674 5675 5675 5676 5676 5676 5677 5678 5679 5680 5681 5682 5684 5685 5686 5687 5688 5688 5688 5688 5688 5687 5686 5685 5683 5680 5677 5674 5669 5665 5661 5657 5652 5648 5644 5640 5637
5660 5662 5664 5665 5666 5668 5668 5669 5670 5671 5672 5673 5674 5675 5676 5677 5678 5680 5681 5682 5683 5683 5684 5684 5684 5684 5684 5683 5682 5681 5678 5676 5672 5669 5664 5660 5656 5651 5647 5642 5638 5634 5631
5651 5653 5656 5658 5659 5661 5662 5664 5665 5666 5668 5669 5670 5672 5673 5674 5675 5676 5677 5678 5679 5679 5680 5680 5680 5680 5680 5679 5678 5676 5673 5670 5667 5663 5659 5655 5651 5646 5641 5637 5633 5629 5625
5641 5644 5647 5649 5651 5654 5656 5657 5659 5661 5662 5664 5666 5667 5668 5670 5671 5672 5673 5674 5674 5675 5676 5676 5676 5676 5675 5674 5673 5671 5668 5665 5662 5659 5655 5650 5646 5641 5636 5632 5627 5623 5620
5631 5634 5637 5640 5643 5646 5648 5651 5653 5655 5657 5658 5660 5662 5664 5665 5666 5667 5668 5669 5670 5670 5671 5671 5671 5670 5670 5669 5667 5666 5663 5661 5658 5654 5650 5646 5641 5637 5632 5627 5623 5618 5614
5620 5624 5628 5631 5634 5637 5640 5643 5646 5648 5650 5653 5655 5657 5658 5659 5661 5662 5663 5664 5664 5665 5665 5666 5665 5665 5664 5663 5662 5660 5658 5656 5653 5650 5646 5642 5637 5632 5627 5623 5618 5613 5609
5609 5613 5618 5621 5625 5629 5632 5635 5638 5641 5644 5646 5649 5651 5652 5654 5655 5656 5657 5658 5659 5659 5660 5660 5660 5659 5658 5658 5656 5655 5653 5651 5648 5645 5641 5637 5633 5628 5623 5618 5613 5609 5604
5597 5602 5607 5612 5616 5620 5624 5627 5630 5634 5636 5639 5642 5645 5646 5647 5649 5650 5651 5652 5652 5653 5653 5653 5653 5653 5652 5651 5650 5649 5647 5645 5643 5640 5637 5633 5629 5624 5619 5614 5609 5604 5599
5587 5592 5598 5603 5607 5612 5616 5620 5623 5626 5629 5632 5635 5638 5639 5640 5642 5644 5645 5645 5646 5646 5647 5647 5647 5646 5646 5645 5644 5643 5641 5640 5637 5635 5632 5628 5624 5619 5614 5609 5604 5598 5593
5577 5583 5589 5594 5599 5604 5608 5611 5615 5619 5622 5624 5627 5630 5632 5633 5634 5636 5637 5638 5639 5639 5640 5640 5640 5639 5639 5638 5637 5636 5635 5634 5632 5629 5626 5623 5619 5614 5609 5604 5598 5593 5588
5567 5574 5580 5586 5592 5596 5601 5604 5608 5612 5615 5617 5620 5623 5625 5626 5627 5629 5630 5631 5632 5632 5633 5633 5633 5632 5632 5631 5631 5630 5628 5627 5625 5623 5620 5617 5613 5608 5603 5598 5593 5588 5582
5558 5566 5573 5580 5585 5590 5594 5598 5602 5605 5608 5611 5613 5615 5618 5620 5620 5621 5622 5623 5624 5625 5625 5626 5626 5625 5625 5624 5624 5623 5622 5620 5618 5616 5614 5611 5607 5602 5597 5592 5587 5582 5577
5551 5559 5566 5573 5579 5583 5588 5592 5596 5599 5602 5605 5607 5609 5611 5613 5614 5615 5616 5616 5617 5618 5618 5619 5619 5619 5618 5618 5617 5616 5615 5613 5611 5609 5606 5603 5599 5596 5591 5586 5581 5575 5570